Regional Weather Roundup
Issued by NWS

Home | Current Version | Previous Version | Graphics & Text | Print | Product List | Glossary On
Versions: 1 2 3 4 5 6 7 8 9 10 11 12 13 14 15 16 17 18 19 20 21 22 23 24 25 26 27 28 29 30 31 32 33 34 35 36 37 38 39 40 41 42 43 44 45 46 47 48 49 50
000
ASUS45 KSLC 230710
RWRUT

UTAH REGIONAL WEATHER ROUNDUP
NATIONAL WEATHER SERVICE SALT LAKE CITY UT
100 AM MDT TUE SEP 23 2014

UTZ001>011-023>025-230800-

NORTHERN UTAH

CITY           SKY/WX    TMP DP  RH WIND       PRES   REMARKS
HILL AFB       CLOUDY    64  49  58 E9        30.14F
LOGAN          CLOUDY    60  55  83 CALM      30.13S
OGDEN          CLOUDY    64  52  64 S6        30.12S
PROVO AIRPORT  CLOUDY    59  54  82 SE5       30.16R
SALT LAKE CITY MOCLDY    66  52  60 E3        30.11R
VERNAL         PTCLDY    58  50  75 W5        30.17F
WENDOVER       CLEAR     61  54  77 E5        30.11S
HEBER CITY     CLOUDY    55  50  82 CALM      30.21S
WEST JORDAN    CLOUDY    64  52  63 S3        30.14R

$$

UTZ012>022-026-027-230800-

SOUTHERN UTAH

CITY           SKY/WX    TMP DP  RH WIND       PRES   REMARKS
BRYCE CANYON   CLEAR     42  37  82 W7        30.35F
CEDAR CITY     CLEAR     57  37  47 SE6       30.21S
MILFORD        CLEAR     59  45  59 SW9       30.16S
MOAB/CYNLANDS  PTCLDY    63  58  83 SW5       30.12S
PRICE          CLEAR     58  52  80 CALM      30.22S
ST GEORGE      PTSUNNY   72  45  37 CALM      30.06S
KANAB            N/A     55  45  67 N3        30.22S

$$

REGIONAL REPORTS     COLORADO/ARIZONA

CITY           SKY/WX    TMP DP  RH WIND       PRES   REMARKS
CRAIG, CO      CLOUDY    53  49  86 SE3       30.23F
GRAND JUNCTION CLOUDY    61  53  75 SE5       30.15F
RIFLE          CLOUDY    58  51  78 SW3       30.22S
MONTROSE       CLOUDY    59  51  75 SE8       30.25S
CORTEZ         CLEAR     51  47  86 E6        30.26S
PAGE, AZ       CLEAR     69  43  38 CALM      30.12S
GRAND CANYON   CLEAR     46  40  79 CALM      30.31S
KINGMAN        CLEAR     63  36  36 SE6       30.09S
FLAGSTAFF      CLEAR     48  44  86 CALM      30.34F

$$

REGIONAL REPORTS    NEVADA/IDAHO/WYOMING

CITY           SKY/WX    TMP DP  RH WIND       PRES   REMARKS
LAS VEGAS, NV  CLEAR     81  40  23 SW8       29.94S
ELY            CLEAR     50  44  80 S7        30.25R
ELKO           CLEAR     53  42  66 NE3       30.14R
POCATELLO, ID  CLEAR     54  51  90 CALM      30.13S
BURLEY         CLEAR     54  48  80 S6        30.09F
EVANSTON, WY   CLOUDY    54  44  69 SW8       30.27S
ROCK SPRINGS   CLEAR     52  43  71 CALM      30.24F

$$


USA.gov is the U.S. government's official web portal to all federal, state and local government web resources and services.